Other Surface Observations
Issued by NWS

Home | Current Version | Previous Version | Text Only | Print | Product List | Glossary On
Versions: 1 2 3 4 5 6 7 8 9 10 11 12 13 14 15 16 17 18 19 20 21 22 23 24 25 26 27 28 29 30 31 32 33 34 35 36 37 38 39 40 41 42 43 44 45 46 47 48 49 50
000
SXUS53 KWBC 270439
OSOPZ
:SHEF ENCODED 6-MINUTE NOS MET DATA
:NATIONAL WATER LEVEL OBSERVATION NETWORK (NWLON)
:TA(AIR TEMP DEG F)  SLP(SEA LEVEL PRESSURE INCHES)
:UD(WIND DIRECTION WHOLE DEGREES) US(WIND SPEED MPH)
:TW(WATER TEMP DEG F) UG(WIND GUSTS MPH) WC(CONDUCTIVITY uMHOS/CM)
:XV(VISIBILITY SM)
:-9999 (MISSING VALUES)
:PROVIDED BY DOC/NOAA/NOS/CO-OPS, (301) 713-2540
:corms@noaa.gov
.E SDBC1 20221127 Z DH0418/PLIRG/DIN06/30.06/30.06
.E SDBC1 20221127 Z DH0418/TWIRG/DIN06/   62/   62
.E LJAC1 20221127 Z DH0418/TAIRG/DIN06/   58/   57
.E LJAC1 20221127 Z DH0418/PLIRG/DIN06/30.04/30.04
.E LJAC1 20221127 Z DH0418/USIRG/DIN06/    8/    7
.E LJAC1 20221127 Z DH0418/UDIRG/DIN06/  120/  119
.E LJAC1 20221127 Z DH0418/UGIRG/DIN06/    9/    9
.E LJAC1 20221127 Z DH0418/TWIRG/DIN06/   60/   60
.A AGXC1 20221127 Z DH0430/TAIRP    59/UGIRP     2/PLIRP 29.98/UDIRP    70/USIRP     0/TWIRP -9999/WCIRP -9999
.A PRJC1 20221127 Z DH0430/TAIRP -9999/UGIRP     4/PLIRP -9999/UDIRP   112/USIRP     3/TWIRP -9999/WCIRP -9999
.A PFDC1 20221127 Z DH0430/TAIRP -9999/UGIRP     4/PLIRP -9999/UDIRP    91/USIRP     2/TWIRP -9999/WCIRP -9999
.A PFXC1 20221127 Z DH0436/TAIRP    59/UGIRP     4/PLIRP 30.03/UDIRP   143/USIRP     3/TWIRP -9999/WCIRP -9999
.A PXAC1 20221127 Z DH0424/TAIRP -9999/UGIRP     1/PLIRP -9999/UDIRP   293/USIRP     0/TWIRP -9999/WCIRP -9999
.A BAXC1 20221127 Z DH0424/TAIRP -9999/UGIRP     2/PLIRP -9999/UDIRP   122/USIRP     1/TWIRP -9999/WCIRP -9999
.A PSXC1 20221127 Z DH0430/TAIRP -9999/UGIRP     2/PLIRP -9999/UDIRP    87/USIRP     1/TWIRP -9999/WCIRP -9999
.A ICAC1 20221127 Z DH0424/TAIRG    59/UGIRG -9999/PLIRG 30.07/UDIRG -9999/USIRG -9999/TWIRG    61/WCIRG -9999
.E NTBC1 20221127 Z DH0424/TAIRG/DIN06/   56/   56
.E NTBC1 20221127 Z DH0424/PLIRG/DIN06/30.04/-9999
.E NTBC1 20221127 Z DH0424/USIRG/DIN06/    5/    4
.E NTBC1 20221127 Z DH0424/UDIRG/DIN06/   26/    5
.E NTBC1 20221127 Z DH0424/UGIRG/DIN06/    7/    6
.E PSLC1 20221127 Z DH0418/TAIRG/DIN06/   53/   54
.E PSLC1 20221127 Z DH0418/PLIRG/DIN06/30.10/30.10
.E PSLC1 20221127 Z DH0418/USIRG/DIN06/    1/    2
.E PSLC1 20221127 Z DH0418/UDIRG/DIN06/  351/  244
.E PSLC1 20221127 Z DH0418/UGIRG/DIN06/    3/    2
.E PSLC1 20221127 Z DH0418/TWIRG/DIN06/   55/   55
.E MEYC1 20221127 Z DH0424/TAIRP/DIN06/   48/   49
.E MEYC1 20221127 Z DH0424/USIRP/DIN06/    4/    4
.E MEYC1 20221127 Z DH0424/UDIRP/DIN06/  181/  177
.E MEYC1 20221127 Z DH0424/UGIRP/DIN06/    4/    5
.E MEYC1 20221127 Z DH0418/TAIRG/DIN06/   48/   48/-9999
.E MEYC1 20221127 Z DH0418/PLIRG/DIN06/-9999/30.11/30.11
.E MEYC1 20221127 Z DH0418/USIRG/DIN06/    3/    4/-9999
.E MEYC1 20221127 Z DH0418/UDIRG/DIN06/  163/  181/-9999
.E MEYC1 20221127 Z DH0418/UGIRG/DIN06/    4/    4/-9999
.E FTPC1 20221127 Z DH0418/TAIRG/DIN06/   53/   53
.E FTPC1 20221127 Z DH0418/PLIRG/DIN06/30.16/30.16
.E FTPC1 20221127 Z DH0418/USIRG/DIN06/    2/    3
.E FTPC1 20221127 Z DH0418/UDIRG/DIN06/  267/  253
.E FTPC1 20221127 Z DH0418/UGIRG/DIN06/    3/    4
.E FTPC1 20221127 Z DH0418/TWIRG/DIN06/   56/   56
.E PXSC1 20221127 Z DH0424/TAIRP/DIN06/   56/   56
.E PXSC1 20221127 Z DH0424/XVIRP/DIN06/6.20/6.20
.E PXOC1 20221127 Z DH0424/TAIRP/DIN06/   55/   56
.E PXOC1 20221127 Z DH0424/PLIRP/DIN06/30.11/30.10
.E PXOC1 20221127 Z DH0424/USIRP/DIN06/    3/    2
.E PXOC1 20221127 Z DH0424/UDIRP/DIN06/  292/  306
.E PXOC1 20221127 Z DH0424/UGIRP/DIN06/    3/    3
.E PXOC1 20221127 Z DH0424/TAIRG/DIN06/   55/   55
.E PXOC1 20221127 Z DH0424/PLIRG/DIN06/30.11/30.11
.E PXOC1 20221127 Z DH0424/USIRG/DIN06/    3/    2
.E PXOC1 20221127 Z DH0424/UDIRG/DIN06/  292/  306
.E PXOC1 20221127 Z DH0424/UGIRG/DIN06/    3/    3
.E RTYC1 20221127 Z DH0424/TAIRG/DIN06/   52/   51
.E RTYC1 20221127 Z DH0424/PLIRG/DIN06/30.16/30.16
.E RTYC1 20221127 Z DH0424/USIRG/DIN06/    1/    0
.E RTYC1 20221127 Z DH0424/UDIRG/DIN06/  182/  202
.E RTYC1 20221127 Z DH0424/UGIRG/DIN06/    2/    1
.E RTYC1 20221127 Z DH0424/TWIRG/DIN06/   56/   56
.E AAMC1 20221127 Z DH0424/TAIRP/DIN06/   55/   55
.E AAMC1 20221127 Z DH0424/PLIRP/DIN06/30.14/30.14
.E AAMC1 20221127 Z DH0424/USIRP/DIN06/    3/    2
.E AAMC1 20221127 Z DH0424/UDIRP/DIN06/  310/  317
.E AAMC1 20221127 Z DH0424/UGIRP/DIN06/    4/    4
.E AAMC1 20221127 Z DH0424/TWIRP/DIN06/   56/   56
.E AAMC1 20221127 Z DH0418/TAIRG/DIN06/   56/   55
.E AAMC1 20221127 Z DH0418/PLIRG/DIN06/30.14/30.14
.E AAMC1 20221127 Z DH0418/USIRG/DIN06/    3/    3
.E AAMC1 20221127 Z DH0418/UDIRG/DIN06/  305/  310
.E AAMC1 20221127 Z DH0418/UGIRG/DIN06/    5/    4
.E AAMC1 20221127 Z DH0418/TWIRG/DIN06/   56/   56
.E LNDC1 20221127 Z DH0424/TAIRP/DIN06/   55/   55
.E LNDC1 20221127 Z DH0424/PLIRP/DIN06/30.13/30.13
.E LNDC1 20221127 Z DH0424/USIRP/DIN06/    3/    3
.E LNDC1 20221127 Z DH0424/UDIRP/DIN06/  334/  357
.E LNDC1 20221127 Z DH0424/UGIRP/DIN06/    4/    4
.E LNDC1 20221127 Z DH0424/TAIRG/DIN06/   55/   55
.E LNDC1 20221127 Z DH0424/PLIRG/DIN06/30.13/30.13
.E LNDC1 20221127 Z DH0424/USIRG/DIN06/    3/    3
.E LNDC1 20221127 Z DH0424/UDIRG/DIN06/  334/  357
.E LNDC1 20221127 Z DH0424/UGIRG/DIN06/    4/    4
.E OMHC1 20221127 Z DH0424/USIRP/DIN06/    6/    6
.E OMHC1 20221127 Z DH0424/UDIRP/DIN06/  344/  335
.E OMHC1 20221127 Z DH0424/UGIRP/DIN06/    6/    6
.A OMHC1 20221127 Z DH0424/TAIRG -9999/UGIRG     6/PLIRG -9999/UDIRG   344/USIRG     6/TWIRG -9999/WCIRG -9999
.E OKXC1 20221127 Z DH0424/TAIRP/DIN06/   54/   54
.E OKXC1 20221127 Z DH0424/PLIRP/DIN06/30.14/30.14
.E OKXC1 20221127 Z DH0424/USIRP/DIN06/    3/    4
.E OKXC1 20221127 Z DH0424/UDIRP/DIN06/  331/  325
.E OKXC1 20221127 Z DH0424/UGIRP/DIN06/    4/    4
.E OBXC1 20221127 Z DH0424/TAIRG/DIN06/   55/   55
.E OBXC1 20221127 Z DH0424/XVIRG/DIN06/6.20/6.20
.E PPXC1 20221127 Z DH0424/TAIRP/DIN06/   57/   57
.E PPXC1 20221127 Z DH0424/PLIRP/DIN06/30.14/30.14
.E PPXC1 20221127 Z DH0424/USIRP/DIN06/    6/    6
.E PPXC1 20221127 Z DH0424/UDIRP/DIN06/  356/  353
.E PPXC1 20221127 Z DH0424/UGIRP/DIN06/    9/    8
.E RCMC1 20221127 Z DH0424/TAIRP/DIN06/   56/   56
.E RCMC1 20221127 Z DH0424/PLIRP/DIN06/30.12/30.12
.E RCMC1 20221127 Z DH0424/USIRP/DIN06/    2/    2
.E RCMC1 20221127 Z DH0424/UDIRP/DIN06/   63/   78
.E RCMC1 20221127 Z DH0424/UGIRP/DIN06/    4/    4
.E RCMC1 20221127 Z DH0424/TWIRP/DIN06/   56/   56
.A PRYC1 20221127 Z DH0424/TAIRG -9999/UGIRG -9999/PLIRG 30.13/UDIRG -9999/USIRG -9999/TWIRG    55/WCIRG -9999
.A MZXC1 20221127 Z DH0424/TAIRG    55/UGIRG     5/PLIRG 30.13/UDIRG   226/USIRG     3/TWIRG    55/WCIRG -9999/XVIRG 6.20
.A PSBC1 20221127 Z DH0424/TAIRG    54/UGIRG     4/PLIRG 30.12/UDIRG   280/USIRG     3/TWIRG -9999/WCIRG -9999
.E UPBC1 20221127 Z DH0424/USIRP/DIN06/    8/    9
.E UPBC1 20221127 Z DH0424/UDIRP/DIN06/  292/  296
.E UPBC1 20221127 Z DH0424/UGIRP/DIN06/    9/   10
.E DPXC1 20221127 Z DH0424/TAIRP/DIN06/   55/   56
.E DPXC1 20221127 Z DH0424/PLIRP/DIN06/30.12/30.12
.E DPXC1 20221127 Z DH0424/USIRP/DIN06/    4/    5
.E DPXC1 20221127 Z DH0424/UDIRP/DIN06/  219/  221
.E DPXC1 20221127 Z DH0424/UGIRP/DIN06/    6/    6
.E PCOC1 20221127 Z DH0424/TAIRP/DIN06/   55/   54
.E PCOC1 20221127 Z DH0424/PLIRP/DIN06/30.12/30.12
.E PCOC1 20221127 Z DH0424/USIRP/DIN06/    5/    6
.E PCOC1 20221127 Z DH0424/UDIRP/DIN06/  200/  198
.E PCOC1 20221127 Z DH0424/UGIRP/DIN06/    7/    9
.E PCOC1 20221127 Z DH0424/TWIRP/DIN06/   55/   55
.A PCOC1 20221127 Z DH0424/TAIRG    55/UGIRG     7/PLIRG 30.12/UDIRG   200/USIRG     5/TWIRG    55/WCIRG -9999
.E ANVC1 20221127 Z DH0418/TAIRG/DIN06/   50/   50
.E ANVC1 20221127 Z DH0418/PLIRG/DIN06/30.13/30.13
.E ANVC1 20221127 Z DH0418/USIRG/DIN06/    2/    2
.E ANVC1 20221127 Z DH0418/UDIRG/DIN06/   59/   76
.E ANVC1 20221127 Z DH0418/UGIRG/DIN06/    4/    5
.E ANVC1 20221127 Z DH0418/TWIRG/DIN06/   53/   53
.A HBYC1 20221127 Z DH0424/TAIRG -9999/UGIRG -9999/PLIRG 30.23/UDIRG -9999/USIRG -9999/TWIRG    51/WCIRG -9999
.E NJLC1 20221127 Z DH0342/TAIRG/DIN06/   51/   51/   51/   51/   51/   51/   51/   51
.E NJLC1 20221127 Z DH0342/USIRG/DIN06/   11/   11/    9/   10/   11/   10/   10/   10
.E NJLC1 20221127 Z DH0342/UDIRG/DIN06/  342/  349/  352/  352/  353/  355/    2/    5
.E NJLC1 20221127 Z DH0342/UGIRG/DIN06/   13/   13/   12/   12/   13/   12/   12/   12
.E CECC1 20221127 Z DH0418/TAIRG/DIN06/   52/   52
.E CECC1 20221127 Z DH0418/PLIRG/DIN06/30.22/30.23
.E CECC1 20221127 Z DH0418/USIRG/DIN06/    8/    9
.E CECC1 20221127 Z DH0418/UDIRG/DIN06/    9/    3
.E CECC1 20221127 Z DH0418/UGIRG/DIN06/   14/   12
.E CECC1 20221127 Z DH0418/TWIRG/DIN06/   51/   51
.A PORO3 20221127 Z DH0424/TAIRG    47/UGIRG    16/PLIRG 30.30/UDIRG    27/USIRG    11/TWIRG -9999/WCIRG -9999
.E CHAO3 20221127 Z DH0424/USIRP/DIN06/    4/    5
.E CHAO3 20221127 Z DH0424/UDIRP/DIN06/  112/  107
.E CHAO3 20221127 Z DH0424/UGIRP/DIN06/    7/    7
.E CHAO3 20221127 Z DH0418/PLIRG/DIN06/30.37/30.37
.E SBEO3 20221127 Z DH0418/PLIRG/DIN06/30.37/30.37
.E TLBO3 20221127 Z DH0418/PLIRG/DIN06/30.34/30.34
.E TLBO3 20221127 Z DH0418/TWIRG/DIN06/   50/   50
.A ASTO3 20221127 Z DH0424/TAIRG    47/UGIRG    17/PLIRG 30.25/UDIRG   175/USIRG    11/TWIRG    47/WCIRG -9999
.E LOPW1 20221127 Z DH0424/PLIRP/DIN06/30.29/30.28
.E LOPW1 20221127 Z DH0424/TWIRP/DIN06/   47/   47
.E LOPW1 20221127 Z DH0418/PLIRG/DIN06/30.29/30.29
.E LOPW1 20221127 Z DH0418/TWIRG/DIN06/   47/   47
.E TOKW1 20221127 Z DH0418/TAIRG/DIN06/   49/   49
.E TOKW1 20221127 Z DH0418/PLIRG/DIN06/30.26/30.26
.E TOKW1 20221127 Z DH0418/USIRG/DIN06/   14/   14
.E TOKW1 20221127 Z DH0418/UDIRG/DIN06/  217/  218
.E TOKW1 20221127 Z DH0418/UGIRG/DIN06/   19/   19
.E TOKW1 20221127 Z DH0418/TWIRG/DIN06/   49/   49
.E WPTW1 20221127 Z DH0424/TAIRP/DIN06/   49/   49
.E WPTW1 20221127 Z DH0424/USIRP/DIN06/   18/   19
.E WPTW1 20221127 Z DH0424/UDIRP/DIN06/  232/  235
.E WPTW1 20221127 Z DH0424/UGIRP/DIN06/   26/   27
.E WPTW1 20221127 Z DH0418/TAIRG/DIN06/   49/   49
.E WPTW1 20221127 Z DH0418/PLIRG/DIN06/30.20/30.20
.E WPTW1 20221127 Z DH0418/USIRG/DIN06/   20/   18
.E WPTW1 20221127 Z DH0418/UDIRG/DIN06/  233/  232
.E WPTW1 20221127 Z DH0418/UGIRG/DIN06/   26/   26
.E WPTW1 20221127 Z DH0418/TWIRG/DIN06/   49/   49
.E LAPW1 20221127 Z DH0424/TAIRP/DIN06/   50/   50
.E LAPW1 20221127 Z DH0424/USIRP/DIN06/   20/   21
.E LAPW1 20221127 Z DH0424/UDIRP/DIN06/  217/  222
.E LAPW1 20221127 Z DH0424/UGIRP/DIN06/   28/   28
.E LAPW1 20221127 Z DH0424/PLIRG/DIN06/30.12/30.11
.E LAPW1 20221127 Z DH0424/TWIRG/DIN06/   46/   46
.E NEAW1 20221127 Z DH0424/PLIRP/DIN06/30.06/30.06
.E NEAW1 20221127 Z DH0424/TWIRP/DIN06/   48/   48
.E PTAW1 20221127 Z DH0342/TAIRG/DIN06/-9999/-9999/-9999/-9999/-9999/-9999/   45/   44
.E PTAW1 20221127 Z DH0342/PLIRG/DIN06/-9999/-9999/-9999/-9999/-9999/-9999/30.09/30.09
.E PTAW1 20221127 Z DH0342/USIRG/DIN06/    3/    1/    3/    5/    3/    2/    3/    4
.E PTAW1 20221127 Z DH0342/UDIRG/DIN06/  183/  281/  222/  220/  220/   20/  168/  155
.E PTAW1 20221127 Z DH0342/UGIRG/DIN06/    5/    6/    4/    8/    5/    3/    4/    6
.E PTAW1 20221127 Z DH0342/TWIRG/DIN06/-9999/-9999/-9999/-9999/-9999/-9999/   47/   47
.E PTWW1 20221127 Z DH0418/TAIRG/DIN06/   48/   48
.E PTWW1 20221127 Z DH0418/PLIRG/DIN06/30.09/30.09
.E PTWW1 20221127 Z DH0418/USIRG/DIN06/   20/   19
.E PTWW1 20221127 Z DH0418/UDIRG/DIN06/  144/  139
.E PTWW1 20221127 Z DH0418/UGIRG/DIN06/   26/   25
.E PTWW1 20221127 Z DH0418/TWIRG/DIN06/   48/   48
.E BMTW1 20221127 Z DH0418/TAIRG/DIN06/   46/   46
.E BMTW1 20221127 Z DH0418/PLIRG/DIN06/30.17/30.16
.E BMTW1 20221127 Z DH0418/USIRG/DIN06/   18/   12
.E BMTW1 20221127 Z DH0418/UDIRG/DIN06/  109/  104
.E BMTW1 20221127 Z DH0418/UGIRG/DIN06/   27/   23
.E TCMW1 20221127 Z DH0424/TAIRP/DIN06/   46/   46
.E TCMW1 20221127 Z DH0424/USIRP/DIN06/    7/    7
.E TCMW1 20221127 Z DH0424/UDIRP/DIN06/  168/  161
.E TCMW1 20221127 Z DH0424/UGIRP/DIN06/   11/   14
.E TCNW1 20221127 Z DH0418/PLIRG/DIN06/30.23/30.22
.E TCNW1 20221127 Z DH0418/TWIRG/DIN06/   52/   52
.E CPMW1 20221127 Z DH0418/TAIRG/DIN06/   46/   46
.E CPMW1 20221127 Z DH0418/USIRG/DIN06/   32/   32
.E CPMW1 20221127 Z DH0418/UDIRG/DIN06/  164/  161
.E CPMW1 20221127 Z DH0418/UGIRG/DIN06/   37/   36
.A CHYW1 20221127 Z DH0424/TAIRG -9999/UGIRG -9999/PLIRG 30.04/UDIRG -9999/USIRG -9999/TWIRG -9999/WCIRG -9999
.E CPNW1 20221127 Z DH0418/TAIRG/DIN06/   46/   46
.E CPNW1 20221127 Z DH0418/USIRG/DIN06/   21/   20
.E CPNW1 20221127 Z DH0418/UDIRG/DIN06/  163/  162
.E CPNW1 20221127 Z DH0418/UGIRG/DIN06/   30/   33
.E FRDW1 20221127 Z DH0424/TAIRP/DIN06/   46/   46
.E FRDW1 20221127 Z DH0424/USIRP/DIN06/    7/    6
.E FRDW1 20221127 Z DH0424/UDIRP/DIN06/  158/  181
.E FRDW1 20221127 Z DH0424/UGIRP/DIN06/   10/   12
.A FRDW1 20221127 Z DH0424/TAIRG -9999/UGIRG -9999/PLIRG 30.09/UDIRG -9999/USIRG -9999/TWIRG    48/WCIRG -9999
.E MGIP4 20221127 Z DH0424/TAIRP/DIN06/   75/   75
.E MGIP4 20221127 Z DH0424/PLIRP/DIN06/29.99/29.99
.E MGIP4 20221127 Z DH0424/USIRP/DIN06/    2/    4
.E MGIP4 20221127 Z DH0424/UDIRP/DIN06/    4/  343
.E MGIP4 20221127 Z DH0424/UGIRP/DIN06/    5/    5
.E MGIP4 20221127 Z DH0424/TWIRP/DIN06/   84/   84
.E MGIP4 20221127 Z DH0418/TAIRG/DIN06/   75/   75
.E MGIP4 20221127 Z DH0418/PLIRG/DIN06/29.99/29.99
.E MGIP4 20221127 Z DH0418/USIRG/DIN06/    4/    2
.E MGIP4 20221127 Z DH0418/UDIRG/DIN06/    6/    4
.E MGIP4 20221127 Z DH0418/UGIRG/DIN06/    5/    5
.E MGIP4 20221127 Z DH0418/TWIRG/DIN06/   84/   84



USA.gov is the U.S. government's official web portal to all federal, state and local government web resources and services.